Wind_Speed
39 40 39 38 38 39 39 39 38 38 37 38 39 38 36 36 36 35 34 33 33 32 32 32 31 31 31 30 30 30 30 30 30 31 31 32 33 33 34 35 36 37 37 38
39 39 38 39 39 39 39 39 39 38 38 38 39 39 37 36 35 35 35 34 33 33 32 31 31 31 31 31 30 30 30 31 31 32 33 33 34 35 35 36 37 37 38 38
39 38 39 39 39 39 40 39 39 38 38 39 39 39 37 36 36 35 35 34 33 33 32 32 31 32 32 31 31 31 31 32 32 33 34 34 35 36 36 37 38 38 39 39
38 38 39 39 39 39 40 40 40 39 40 40 39 40 37 36 36 35 34 34 34 34 33 33 32 32 32 32 32 32 33 33 34 34 34 34 35 36 36 37 38 39 39 40
37 37 38 39 39 39 39 39 40 40 40 41 40 41 38 37 36 35 34 34 34 35 35 34 33 33 33 33 33 34 34 34 34 35 35 35 36 36 36 37 38 38 39 40
37 37 38 38 38 38 37 38 39 40 41 42 40 41 40 37 36 35 35 34 34 34 35 35 34 34 34 34 34 34 35 35 35 35 36 36 36 37 37 37 38 38 39 40
36 36 37 38 38 39 38 38 38 39 41 42 39 41 41 37 36 35 35 34 35 35 35 35 34 34 34 34 34 35 35 35 35 35 36 36 37 37 37 38 38 39 39 40
35 37 36 37 37 38 39 38 38 38 39 39 39 41 40 37 36 35 35 35 35 35 34 34 35 34 34 34 34 35 35 35 35 36 36 36 36 37 38 39 39 40 41 41
36 37 37 37 37 37 37 38 37 37 39 39 39 40 39 38 36 35 35 35 35 35 34 35 35 35 35 34 34 34 35 35 35 35 36 36 37 38 38 39 40 41 42 42
36 37 36 36 37 38 38 37 36 37 37 38 39 38 38 37 35 34 34 35 34 34 35 35 34 35 35 35 34 35 35 35 35 35 36 36 37 38 39 40 41 41 41 41
34 36 36 36 37 37 38 38 38 37 37 37 37 37 37 36 35 34 34 35 34 33 34 34 34 34 35 35 35 35 36 36 36 36 36 37 38 39 40 40 41 41 40 41
33 35 35 35 35 34 35 36 37 37 37 36 36 35 33 33 33 33 33 33 33 33 33 33 33 34 34 35 35 36 36 36 36 37 38 38 39 39 40 40 40 40 41 41
33 34 35 34 34 35 36 36 36 37 37 37 36 36 34 33 32 32 32 33 33 34 33 33 33 33 34 34 35 35 36 36 37 37 38 39 39 40 40 40 40 41 42 42
34 34 35 34 34 34 35 36 36 37 37 37 37 35 35 34 33 32 32 32 33 33 33 33 32 33 34 34 34 35 36 37 37 38 39 39 40 40 40 40 41 41 42 43
33 34 34 34 34 35 36 35 36 37 37 37 36 36 36 35 34 33 33 32 33 33 33 32 32 33 33 34 34 35 36 37 37 38 39 39 39 40 40 40 41 41 42 43
30 31 33 34 34 35 36 36 36 37 36 36 36 35 35 36 35 35 34 33 33 33 33 33 33 33 33 33 34 35 36 36 37 37 38 38 39 39 40 40 41 42 43 44
28 29 30 32 33 34 35 34 35 36 35 35 35 34 34 35 35 35 35 34 33 33 33 32 33 33 33 33 34 35 35 36 37 37 38 38 38 38 39 40 40 41 42 43
29 30 30 31 32 34 32 33 34 35 36 36 35 35 35 36 35 35 35 35 34 33 32 32 33 33 33 33 33 34 34 35 36 36 37 37 38 38 39 39 40 40 41 41
28 29 30 30 31 32 32 32 32 33 34 36 36 35 35 35 35 35 35 35 35 34 34 33 33 33 33 33 33 33 34 35 35 36 36 36 37 37 38 38 38 39 39 39
26 27 27 28 29 30 30 31 32 32 33 34 36 35 35 35 35 34 35 36 35 35 34 34 33 33 33 32 33 33 33 34 35 35 35 36 36 36 36 36 37 38 39 39
23 24 25 26 27 28 29 29 30 32 31 32 34 34 34 35 34 33 34 34 34 34 34 34 33 33 33 33 33 33 33 33 33 33 34 35 35 36 36 36 36 37 36 36
22 23 24 25 25 26 26 27 27 28 29 30 31 32 33 33 33 32 32 33 33 33 33 33 33 33 33 32 32 32 32 32 32 32 33 33 34 34 35 35 35 35 35 34
23 23 23 23 24 24 24 25 26 26 27 28 29 29 31 31 32 32 32 32 33 33 32 32 32 32 32 32 32 32 32 31 31 32 32 33 33 33 33 34 34 34 34 33
22 23 23 23 22 23 24 24 25 25 25 26 27 28 28 28 30 31 31 31 32 33 33 33 33 32 33 33 33 32 32 32 32 31 31 32 32 32 33 33 33 33 32 31
20 22 23 24 23 24 24 24 24 25 25 26 26 26 26 27 28 29 30 30 31 32 32 33 33 33 32 32 32 32 32 31 31 31 31 31 31 32 32 32 31 30 30 29
21 21 23 23 24 24 24 24 24 24 24 25 25 25 26 26 26 27 28 29 29 29 30 30 31 32 32 32 32 31 31 31 31 30 31 31 31 31 31 30 29 29 28 28
Wind_Direction
237 237 238 239 239 239 239 240 240 241 241 242 242 242 242 242 243 243 245 247 248 249 249 250 252 253 253 254 256 258 258 259 261 263 265 267 269 271 272 273 274 274 275 276
236 237 237 237 238 238 238 239 240 241 241 242 242 242 242 242 243 244 245 246 247 248 249 250 252 253 254 255 257 259 259 261 263 265 267 269 270 271 273 274 275 276 276 277
238 237 236 236 237 237 238 239 239 241 241 242 244 242 241 242 243 244 245 246 247 248 250 251 253 255 256 257 258 260 261 263 266 268 270 271 272 273 273 274 275 276 277 279
237 236 237 237 237 238 238 238 240 240 241 242 243 244 240 242 243 244 245 246 248 249 251 253 255 256 258 259 260 261 263 266 269 271 272 273 274 274 275 275 277 277 278 280
237 237 238 238 238 239 239 239 240 240 242 242 242 245 241 242 244 245 246 247 249 250 251 254 256 257 258 260 262 263 265 268 270 272 273 274 275 276 276 277 278 279 280 281
237 237 238 238 238 238 238 239 240 241 242 242 241 246 244 242 245 246 247 248 250 251 252 254 256 258 259 261 263 265 267 269 270 272 274 275 276 276 277 278 279 280 281 282
237 236 237 237 238 237 237 238 240 241 242 244 243 246 247 245 246 247 248 249 250 252 253 254 256 258 260 262 264 265 267 269 271 273 274 275 276 276 277 279 280 281 282 282
238 236 235 235 235 237 237 238 240 242 244 245 245 247 247 247 247 247 248 249 251 252 254 255 256 258 260 263 264 266 268 270 272 273 274 275 276 276 278 279 281 282 283 283
238 238 235 235 234 234 235 237 239 242 244 246 246 247 247 247 248 249 250 250 251 252 254 256 257 258 261 263 264 266 268 270 272 273 274 275 276 277 279 280 282 282 283 284
238 238 236 235 235 234 235 236 236 238 241 244 246 247 248 249 250 251 251 251 252 253 255 256 258 259 260 262 264 266 267 270 272 273 274 275 276 278 280 281 282 283 284 284
237 237 235 234 235 235 234 234 236 238 241 243 247 248 249 250 251 251 251 252 253 254 255 257 258 259 260 261 263 265 267 269 271 273 274 275 277 279 281 282 283 283 284 284
236 236 236 235 234 234 234 234 235 236 239 242 245 246 246 248 249 250 251 252 252 254 255 256 257 258 260 262 264 265 267 268 270 272 274 275 277 279 281 283 283 283 284 285
235 235 236 234 233 232 233 233 235 237 240 241 243 245 245 247 248 249 251 251 252 253 255 256 258 259 261 263 265 266 267 268 270 272 274 275 277 279 281 282 282 283 285 286
236 236 236 237 236 236 236 234 235 237 240 241 243 245 245 246 247 248 249 251 252 253 255 257 258 260 262 263 265 266 268 269 271 273 274 276 278 280 281 281 282 284 285 287
237 238 238 238 238 238 238 237 236 237 240 242 242 244 244 245 245 247 248 250 252 253 254 256 259 261 262 264 265 267 269 270 272 274 275 276 278 279 280 281 283 284 286 287
238 240 240 241 240 239 238 238 238 239 239 241 241 242 244 245 246 247 249 250 251 252 255 257 259 261 263 266 268 269 270 272 273 274 275 277 278 279 280 282 283 285 286 287
239 242 244 243 242 242 241 239 239 240 240 241 242 243 244 245 247 248 249 248 251 253 255 257 259 262 265 268 270 271 272 273 274 275 276 277 278 280 281 282 284 285 287 288
238 241 245 246 245 246 244 242 242 242 240 240 242 241 242 244 246 248 248 249 250 253 255 257 260 263 266 268 270 272 273 274 275 276 277 278 280 281 282 283 285 286 288 289
237 241 245 247 248 248 246 246 245 244 242 242 243 243 243 245 246 247 248 250 252 254 256 258 261 264 266 269 271 273 275 275 276 277 278 279 280 282 283 284 285 287 288 289
241 242 244 247 246 247 247 248 246 246 245 241 242 244 245 246 247 248 249 250 252 254 257 259 261 264 267 269 271 273 276 277 277 277 278 278 279 281 283 284 287 288 289 290
242 241 243 246 248 250 250 250 247 247 246 244 244 245 246 247 248 249 250 251 253 255 258 259 261 263 266 269 271 274 276 278 278 276 277 278 279 280 282 285 288 289 290 290
244 245 245 247 248 250 249 248 247 247 247 247 247 247 247 248 249 250 251 253 254 255 258 259 261 263 266 270 272 274 276 277 277 278 278 279 281 282 284 286 288 289 290 291
245 247 248 249 251 252 251 249 248 247 247 247 247 247 247 248 249 251 252 253 255 256 258 259 261 263 266 269 272 274 275 276 278 279 280 282 283 285 287 288 289 290 290 291
247 247 248 249 248 249 250 249 248 247 247 247 246 246 246 247 248 251 253 255 257 258 259 260 262 263 266 268 271 274 275 275 276 279 281 283 285 287 289 291 291 290 291 292
248 247 246 246 247 248 248 248 248 250 250 249 247 245 245 246 248 251 253 255 258 260 260 260 262 264 266 268 272 273 274 275 277 278 281 284 286 288 290 291 291 291 292 293
247 248 246 246 247 248 249 249 249 251 251 249 247 246 246 247 249 250 253 256 258 259 260 261 262 263 264 267 270 271 272 274 276 278 280 283 285 288 289 290 291 291 292 292
Height
5648 5653 5658 5663 5666 5670 5673 5677 5680 5684 5687 5691 5694 5699 5703 5706 5709 5713 5716 5719 5721 5724 5726 5728 5730 5732 5734 5736 5738 5739 5741 5742 5743 5743 5744 5744 5744 5744 5744 5743 5743 5742 5741 5741
5640 5645 5651 5653 5657 5661 5665 5668 5672 5676 5679 5682 5686 5690 5695 5699 5702 5706 5709 5711 5714 5717 5719 5721 5724 5726 5727 5729 5731 5732 5733 5734 5735 5735 5736 5736 5736 5735 5735 5734 5734 5733 5732 5731
5632 5638 5641 5644 5648 5652 5656 5661 5665 5668 5671 5674 5678 5682 5687 5691 5694 5698 5701 5704 5707 5710 5712 5715 5717 5719 5720 5722 5724 5725 5726 5726 5727 5727 5727 5727 5726 5726 5726 5725 5724 5724 5723 5722
5623 5628 5632 5636 5640 5644 5648 5653 5656 5659 5662 5666 5670 5673 5680 5683 5687 5690 5694 5697 5700 5703 5705 5708 5710 5712 5713 5715 5716 5717 5718 5718 5718 5718 5718 5718 5717 5717 5716 5715 5715 5714 5713 5712
5615 5620 5623 5628 5633 5636 5640 5644 5648 5651 5654 5657 5662 5664 5672 5675 5679 5683 5687 5690 5693 5695 5697 5700 5702 5704 5706 5707 5708 5709 5710 5710 5710 5709 5709 5708 5708 5707 5706 5706 5705 5704 5703 5702
5607 5612 5615 5620 5624 5628 5632 5636 5639 5642 5644 5649 5655 5656 5661 5668 5672 5676 5679 5682 5685 5687 5690 5692 5694 5696 5698 5699 5700 5701 5701 5701 5701 5700 5700 5699 5698 5697 5697 5696 5695 5694 5693 5692
5599 5603 5607 5611 5615 5620 5624 5628 5631 5633 5636 5641 5647 5648 5653 5660 5664 5667 5671 5674 5676 5679 5681 5684 5686 5688 5690 5691 5692 5692 5693 5692 5692 5691 5690 5689 5688 5688 5687 5687 5685 5684 5683 5682
5590 5595 5599 5603 5608 5612 5616 5620 5625 5628 5630 5635 5638 5640 5647 5652 5655 5658 5662 5665 5668 5670 5673 5675 5678 5680 5681 5683 5683 5684 5684 5684 5683 5682 5681 5680 5679 5678 5678 5677 5675 5674 5673 5671
5581 5586 5591 5595 5599 5604 5607 5612 5617 5620 5622 5626 5629 5633 5638 5642 5646 5650 5654 5657 5659 5662 5665 5667 5669 5671 5672 5674 5675 5675 5675 5675 5674 5673 5672 5671 5670 5669 5668 5667 5665 5664 5662 5660
5573 5577 5583 5587 5591 5595 5600 5605 5609 5611 5614 5617 5622 5626 5630 5635 5638 5642 5645 5648 5651 5654 5656 5658 5660 5662 5664 5665 5666 5666 5666 5666 5665 5664 5663 5662 5661 5660 5658 5657 5655 5653 5651 5649
5565 5569 5574 5578 5582 5587 5592 5596 5600 5604 5607 5611 5614 5621 5623 5627 5630 5634 5636 5639 5642 5645 5647 5649 5651 5653 5654 5655 5656 5657 5657 5657 5656 5655 5654 5653 5652 5650 5649 5647 5645 5643 5641 5639
5557 5561 5565 5571 5575 5579 5583 5588 5592 5597 5600 5603 5607 5614 5615 5618 5622 5625 5628 5631 5633 5636 5638 5640 5642 5644 5645 5646 5647 5647 5647 5647 5647 5646 5645 5644 5642 5640 5639 5637 5635 5633 5631 5629
5550 5554 5558 5562 5569 5571 5575 5579 5584 5588 5591 5595 5599 5606 5608 5610 5613 5617 5620 5622 5625 5627 5629 5632 5633 5635 5636 5637 5638 5638 5638 5638 5637 5636 5635 5634 5632 5630 5629 5627 5625 5623 5620 5618
5543 5547 5552 5556 5560 5563 5567 5571 5575 5579 5582 5586 5591 5596 5600 5602 5606 5608 5611 5614 5616 5619 5621 5623 5625 5626 5627 5628 5628 5628 5628 5628 5627 5626 5625 5624 5622 5620 5618 5616 5614 5612 5610 5608
5536 5540 5544 5547 5552 5555 5559 5563 5566 5570 5574 5579 5584 5587 5591 5594 5597 5600 5603 5605 5608 5610 5613 5615 5616 5617 5618 5619 5619 5619 5618 5618 5617 5616 5615 5613 5612 5610 5608 5606 5604 5601 5599 5597
5529 5533 5536 5540 5543 5546 5550 5554 5558 5562 5566 5570 5575 5579 5582 5585 5589 5592 5594 5597 5599 5602 5604 5606 5607 5608 5609 5609 5610 5609 5608 5608 5607 5605 5604 5603 5601 5599 5597 5595 5593 5590 5588 5586
5523 5527 5530 5532 5536 5537 5542 5547 5551 5555 5559 5563 5566 5572 5574 5577 5580 5583 5586 5588 5590 5593 5595 5597 5598 5599 5600 5600 5600 5599 5599 5598 5596 5595 5594 5592 5591 5589 5587 5585 5582 5580 5577 5575
5517 5520 5522 5525 5528 5530 5538 5540 5543 5546 5550 5554 5558 5562 5565 5568 5571 5573 5576 5579 5582 5584 5586 5588 5589 5590 5590 5590 5590 5590 5589 5588 5586 5585 5584 5582 5580 5579 5576 5574 5572 5569 5567 5564
5511 5513 5516 5518 5520 5524 5529 5532 5535 5538 5542 5546 5549 5553 5556 5559 5562 5565 5568 5570 5573 5575 5577 5578 5580 5580 5581 5581 5581 5580 5579 5578 5577 5575 5574 5572 5570 5568 5566 5564 5561 5559 5557 5554
5505 5508 5510 5512 5514 5518 5523 5526 5527 5531 5533 5537 5540 5544 5547 5550 5554 5558 5560 5562 5564 5566 5568 5569 5570 5571 5572 5572 5571 5571 5570 5568 5567 5565 5564 5562 5561 5559 5557 5554 5552 5549 5547 5545
5499 5502 5504 5506 5508 5511 5515 5517 5520 5525 5528 5530 5532 5536 5539 5542 5546 5549 5550 5552 5554 5556 5558 5560 5561 5562 5562 5562 5562 5561 5560 5559 5557 5556 5555 5553 5551 5549 5547 5545 5543 5540 5537 5535
5494 5497 5499 5501 5503 5507 5508 5511 5514 5517 5519 5522 5524 5527 5531 5533 5536 5539 5541 5543 5546 5548 5549 5550 5551 5553 5553 5553 5553 5552 5551 5549 5548 5547 5545 5544 5542 5540 5538 5536 5534 5531 5529 5527
5489 5492 5494 5496 5500 5500 5502 5504 5507 5509 5512 5514 5517 5520 5522 5525 5528 5530 5533 5535 5537 5538 5540 5541 5542 5543 5543 5543 5543 5542 5542 5540 5539 5538 5537 5535 5533 5531 5530 5528 5525 5523 5520 5518
5484 5486 5488 5490 5492 5494 5496 5498 5500 5502 5505 5507 5510 5512 5514 5517 5520 5522 5524 5526 5528 5529 5530 5532 5533 5534 5534 5534 5534 5533 5532 5531 5531 5530 5528 5527 5525 5523 5521 5519 5517 5515 5512 5510
5478 5479 5481 5484 5486 5488 5490 5492 5494 5496 5498 5500 5502 5505 5507 5509 5512 5514 5515 5517 5519 5520 5521 5522 5523 5524 5525 5525 5525 5524 5523 5523 5522 5521 5520 5519 5517 5515 5513 5511 5509 5507 5505 5502
5472 5474 5476 5478 5481 5482 5485 5486 5488 5490 5492 5494 5496 5498 5500 5502 5504 5506 5507 5509 5510 5511 5512 5513 5514 5515 5516 5516 5516 5515 5515 5514 5514 5513 5512 5510 5509 5507 5506 5503 5502 5499 5497 5495